Weather History for Escanaba, MI

Change the Weather History Date:

Tuesday, March 27, 2012

  Actual Average Record
Temperature  
Mean Temperature 40 °F -  
Max Temperature 44 °F 38 °F 58 °F (1985)
Min Temperature 35 °F 23 °F 6 °F (1964)
Degree Days  
Heating Degree Days 26    
Moisture  
Dew Point 22 °F    
Average Humidity 53    
Maximum Humidity 65    
Minimum Humidity 48    
Precipitation  
Precipitation 0.01 in - - ()
Sea Level Pressure  
Sea Level Pressure 30.08 in    
Wind  
Wind Speed 14 mph (SSE)    
Max Wind Speed 23 mph    
Max Gust Speed 33 mph    
Visibility 10 miles    
Events      
Averages and records for this station are not official NWS values.
T = Trace of Precipitation, MM = Missing Value Source: NWS Daily Summary

Daily Weather History Graph

Daily Weather History Graph

Search for Another Location

Airport:

Trip Planner

Search our weather history database for the weather conditions in past years. The results will help you decide how hot, cold, wet, or windy it might be!

Date:

Astronomy

Mar. 27, 2012 Rise Set
Actual Time 7:37 AM EDT 8:10 PM EDT
Civil Twilight 7:07 AM EDT 8:40 PM EDT
Nautical Twilight 6:31 AM EDT 9:16 PM EDT
Astronomical Twilight 5:55 AM EDT 9:53 PM EDT
Moon 9:52 AM EDT (3/27) 12:34 AM EDT (3/27)
Length of Visible Light 13h 33m
Length of Day
12h 33m
Waxing Crescent, 22% of the Moon is Illuminated
Mar 27
Waxing Crescent
Mar 30
First Quarter
Apr 6
Full
Apr 13
Last Quarter
Apr 21
New

Hourly Weather History & Observations

Time (EDT) Temp. Windchill Dew Point Humidity Pressure Visibility Wind Dir Wind Speed Gust Speed Precip Events Conditions
12:15 AM 35.6 °F 27.1 °F 17.6 °F 48% 30.32 in 10.0 mi ESE 12.7 mph - N/A   Clear
12:35 AM 35.6 °F 27.5 °F 17.6 °F 48% 30.31 in 10.0 mi SE 11.5 mph 17.3 mph N/A   Clear
12:55 AM 35.6 °F 27.1 °F 19.4 °F 52% 30.30 in 10.0 mi SE 12.7 mph 19.6 mph N/A   Clear
1:15 AM 35.6 °F 27.5 °F 19.4 °F 52% 30.29 in 10.0 mi ESE 11.5 mph - N/A   Clear
1:35 AM 35.6 °F 26.6 °F 19.4 °F 52% 30.28 in 10.0 mi ESE 13.8 mph - N/A   Clear
1:55 AM 35.6 °F 25.5 °F 19.4 °F 52% 30.28 in 10.0 mi ESE 17.3 mph 21.9 mph N/A   Mostly Cloudy
2:15 AM 35.6 °F 26.2 °F 21.2 °F 56% 30.27 in 10.0 mi ESE 15.0 mph - N/A   Overcast
2:35 AM 37.4 °F 29.3 °F 21.2 °F 52% 30.27 in 10.0 mi SE 12.7 mph - N/A   Mostly Cloudy
2:55 AM 37.4 °F 28.9 °F 21.2 °F 52% 30.26 in 10.0 mi SE 13.8 mph 17.3 mph N/A   Scattered Clouds
3:15 AM 37.4 °F 29.8 °F 23.0 °F 56% 30.24 in 10.0 mi SE 11.5 mph - N/A   Mostly Cloudy
3:35 AM 37.4 °F 30.3 °F 24.8 °F 60% 30.24 in 10.0 mi SSE 10.4 mph 16.1 mph N/A   Overcast
3:55 AM 37.4 °F 30.3 °F 24.8 °F 60% 30.24 in 10.0 mi SSE 10.4 mph 18.4 mph N/A   Overcast
4:15 AM 37.4 °F 29.3 °F 26.6 °F 65% 30.24 in 10.0 mi South 12.7 mph 18.4 mph N/A   Overcast
4:35 AM 37.4 °F 30.8 °F 26.6 °F 65% 30.24 in 10.0 mi South 9.2 mph - N/A   Overcast
4:55 AM 37.4 °F 28.9 °F 24.8 °F 60% 30.23 in 10.0 mi South 13.8 mph 19.6 mph N/A   Overcast
5:15 AM 37.4 °F 29.8 °F 24.8 °F 60% 30.23 in 10.0 mi South 11.5 mph 16.1 mph N/A   Overcast
5:35 AM 37.4 °F 30.8 °F 24.8 °F 60% 30.25 in 10.0 mi South 9.2 mph - N/A   Overcast
5:55 AM 37.4 °F 28.5 °F 24.8 °F 60% 30.21 in 10.0 mi SSE 15.0 mph 19.6 mph N/A   Overcast
6:15 AM 37.4 °F 28.2 °F 23.0 °F 56% 30.20 in 10.0 mi SSE 16.1 mph 20.7 mph N/A   Overcast
6:35 AM 37.4 °F 27.8 °F 21.2 °F 52% 30.20 in 10.0 mi SSE 17.3 mph - N/A   Overcast
6:55 AM 37.4 °F 28.9 °F 23.0 °F 56% 30.19 in 10.0 mi SSE 13.8 mph 23.0 mph N/A   Overcast
7:15 AM 37.4 °F 28.2 °F 21.2 °F 52% 30.18 in 10.0 mi South 16.1 mph 21.9 mph N/A   Overcast
7:35 AM 37.4 °F 27.8 °F 21.2 °F 52% 30.18 in 10.0 mi SSE 17.3 mph 28.8 mph N/A   Overcast
7:55 AM 37.4 °F 28.5 °F 21.2 °F 52% 30.18 in 10.0 mi SSE 15.0 mph 24.2 mph N/A   Overcast
8:15 AM 37.4 °F 28.2 °F 21.2 °F 52% 30.17 in 10.0 mi SSE 16.1 mph 25.3 mph N/A   Overcast
8:35 AM 37.4 °F 28.5 °F 21.2 °F 52% 30.16 in 10.0 mi South 15.0 mph 27.6 mph N/A   Overcast
8:55 AM 37.4 °F 28.5 °F 21.2 °F 52% 30.15 in 10.0 mi South 15.0 mph 27.6 mph N/A   Overcast
9:15 AM 37.4 °F 27.5 °F 21.2 °F 52% 30.13 in 10.0 mi South 18.4 mph 26.5 mph N/A   Overcast
9:35 AM 37.4 °F 28.2 °F 21.2 °F 52% 30.12 in 10.0 mi South 16.1 mph 25.3 mph N/A   Overcast
9:55 AM 37.4 °F 27.5 °F 21.2 °F 52% 30.10 in 10.0 mi SSE 18.4 mph 25.3 mph N/A   Overcast
10:15 AM 37.4 °F 27.5 °F 19.4 °F 48% 30.08 in 10.0 mi South 18.4 mph 26.5 mph N/A   Overcast
10:35 AM 37.4 °F 26.6 °F 19.4 °F 48% 30.06 in 10.0 mi South 21.9 mph 29.9 mph N/A   Overcast
10:55 AM 37.4 °F 26.9 °F 19.4 °F 48% 30.03 in 10.0 mi SSE 20.7 mph 33.4 mph 0.01 in   Overcast
11:15 AM 37.4 °F 26.4 °F 19.4 °F 48% 30.03 in 10.0 mi South 23.0 mph 33.4 mph N/A   Overcast
11:35 AM 37.4 °F 26.6 °F 21.2 °F 52% 30.00 in 10.0 mi SSE 21.9 mph 28.8 mph N/A   Overcast
11:55 AM 37.4 °F 27.2 °F 21.2 °F 52% 29.98 in 10.0 mi SSE 19.6 mph 27.6 mph N/A   Overcast
12:15 PM 39.2 °F 28.7 °F 21.2 °F 49% 29.96 in 10.0 mi South 23.0 mph 29.9 mph N/A   Overcast
12:35 PM 39.2 °F 30.2 °F 21.2 °F 49% 29.96 in 10.0 mi South 17.3 mph 25.3 mph N/A   Overcast
12:55 PM 39.2 °F 29.6 °F 21.2 °F 49% 29.94 in 10.0 mi South 19.6 mph 26.5 mph N/A   Overcast
1:15 PM 39.2 °F 30.8 °F 21.2 °F 49% 29.92 in 10.0 mi South 15.0 mph 25.3 mph N/A   Overcast
1:35 PM 39.2 °F 30.5 °F 21.2 °F 49% 29.90 in 10.0 mi South 16.1 mph 25.3 mph N/A   Overcast
1:55 PM 39.2 °F 30.8 °F 23.0 °F 52% 29.89 in 10.0 mi South 15.0 mph 25.3 mph N/A   Overcast
2:15 PM 39.2 °F 29.6 °F 23.0 °F 52% 29.87 in 10.0 mi South 19.6 mph 26.5 mph N/A   Overcast
2:35 PM 41.0 °F 32.8 °F 24.8 °F 53% 29.85 in 10.0 mi South 16.1 mph 23.0 mph N/A   Overcast
2:55 PM 42.8 °F 34.5 °F 24.8 °F 49% 29.83 in 10.0 mi South 18.4 mph 26.5 mph N/A   Overcast
3:15 PM 41.0 °F 33.9 °F 24.8 °F 53% 29.82 in 10.0 mi South 12.7 mph 24.2 mph N/A   Overcast
3:35 PM 41.0 °F 33.9 °F 24.8 °F 53% 29.80 in 10.0 mi South 12.7 mph 19.6 mph N/A   Overcast
3:55 PM 41.0 °F 33.5 °F 24.8 °F 53% 29.79 in 10.0 mi South 13.8 mph 23.0 mph N/A   Overcast
4:15 PM 42.8 °F 34.5 °F 24.8 °F 49% 29.77 in 10.0 mi South 18.4 mph 25.3 mph N/A   Overcast
4:35 PM 42.8 °F 35.4 °F 26.6 °F 53% 29.76 in 10.0 mi South 15.0 mph 24.2 mph N/A   Overcast
4:55 PM 44.6 °F 37.8 °F 26.6 °F 49% 29.74 in 10.0 mi South 15.0 mph 26.5 mph N/A   Mostly Cloudy
5:15 PM 42.8 °F 34.8 °F 26.6 °F 53% 29.71 in 10.0 mi South 17.3 mph 21.9 mph N/A   Clear
5:35 PM 42.8 °F 35.1 °F 26.6 °F 53% 29.71 in 10.0 mi South 16.1 mph 24.2 mph N/A   Mostly Cloudy
5:55 PM 44.6 °F 36.9 °F 26.6 °F 49% 29.69 in 10.0 mi South 18.4 mph 26.5 mph N/A   Overcast
6:15 PM 44.6 °F 37.2 °F 26.6 °F 49% 29.67 in 10.0 mi South 17.3 mph 24.2 mph N/A   Mostly Cloudy
6:35 PM 44.6 °F 38.1 °F 28.4 °F 53% 29.66 in 10.0 mi South 13.8 mph 20.7 mph N/A   Clear
6:55 PM 44.6 °F 38.1 °F 28.4 °F 53% 29.65 in 10.0 mi South 13.8 mph 19.6 mph N/A   Clear
7:15 PM 42.8 °F 36.6 °F 28.4 °F 57% 29.64 in 10.0 mi South 11.5 mph 17.3 mph N/A   Clear
7:35 PM 42.8 °F 36.6 °F 28.4 °F 57% 29.62 in 10.0 mi South 11.5 mph 18.4 mph N/A   Clear
7:55 PM 42.8 °F 36.6 °F 28.4 °F 57% 29.61 in 10.0 mi SSW 11.5 mph 20.7 mph N/A   Clear
8:15 PM 42.8 °F 35.8 °F 28.4 °F 57% 29.60 in 10.0 mi SSW 13.8 mph 19.6 mph N/A   Partly Cloudy
8:35 PM 44.6 °F 37.8 °F 30.2 °F 57% 29.59 in 10.0 mi SSW 15.0 mph 21.9 mph N/A   Mostly Cloudy
8:55 PM 44.6 °F 38.4 °F 30.2 °F 57% 29.58 in 10.0 mi SSW 12.7 mph - N/A   Partly Cloudy
9:15 PM 44.6 °F 38.8 °F 30.2 °F 57% 29.57 in 10.0 mi SSW 11.5 mph - N/A   Partly Cloudy
9:35 PM 44.6 °F 38.4 °F 32.0 °F 61% 29.57 in 10.0 mi SSW 12.7 mph 19.6 mph N/A   Partly Cloudy
9:55 PM 44.6 °F 38.4 °F 33.8 °F 66% 29.57 in 10.0 mi SW 12.7 mph 19.6 mph N/A   Clear
10:15 PM 46.4 °F 42.4 °F 33.8 °F 62% 29.56 in 10.0 mi SW 8.1 mph - N/A   Scattered Clouds
10:35 PM 48.2 °F - 35.6 °F 62% 29.56 in 10.0 mi WSW 9.2 mph - N/A   Overcast
10:55 PM 46.4 °F 42.9 °F 35.6 °F 66% 29.56 in 10.0 mi SW 6.9 mph - N/A   Overcast
11:15 PM 46.4 °F 44.3 °F 35.6 °F 66% 29.55 in 10.0 mi SW 4.6 mph - N/A   Overcast
11:35 PM 46.4 °F - 35.6 °F 66% 29.55 in 10.0 mi Calm Calm - N/A   Overcast
11:55 PM 46.4 °F 45.2 °F 35.6 °F 66% 29.55 in 10.0 mi SSW 3.5 mph - N/A   Overcast